{"data":{"norad_id":66048,"epoch":"2026-05-25T03:46:34.551840Z","epoch_age_seconds":75552,"freshness":"FRESH","line1":"1 66048U 25233R   26145.15734435  .00000140  00000+0  19756-3 0  9994","line2":"2 66048  89.0013  45.4829 0001918  81.8584 278.2785 13.51006521 30075","mean_motion":13.51006521,"eccentricity":0.0001918,"inclination_deg":89.0013,"raan_deg":45.4829,"arg_perigee_deg":81.8584,"mean_anomaly_deg":278.2785,"bstar":0.00019756,"rev_number":3007,"period_min":106.58719833078,"perigee_km":1067.1293467904,"apogee_km":1069.9858988477,"semimajor_km":7446.694622819,"source":"CELESTRAK","updated_at":"2026-05-25T13:38:05.923461Z"}}